This is the latest recevied weather packets stored in our database for station/object K1WJY. If no packets are shown the sender has not sent any weather packets the latest 10 day(s).
| Time | Temp. | Humidity | Pressure | Rain* | Wind** | Luminosity | Snow |
|---|---|---|---|---|---|---|---|
| 1788054776 | 14.44° C | 93% | 1022.2 hPa | 0 mm | - | 0 W/m² | - |
| 1788054471 | 15° C | 92% | 1022.3 hPa | 0 mm | - | 0 W/m² | - |
| 1788054167 | 15° C | 92% | 1022.3 hPa | 0 mm | - | 0 W/m² | - |
| 1788053863 | 15° C | 91% | 1022.3 hPa | 0 mm | - | 0 W/m² | - |
| 1788053557 | 15° C | 91% | 1022.2 hPa | 0 mm | - | 0 W/m² | - |
| 1788053252 | 15° C | 91% | 1022.2 hPa | 0 mm | - | 0 W/m² | - |
| 1788052949 | 15° C | 90% | 1022.3 hPa | 0 mm | - | 0 W/m² | - |
| 1788052644 | 15.56° C | 89% | 1022.2 hPa | 0 mm | - | 0 W/m² | - |
| 1788052339 | 15.56° C | 89% | 1022.2 hPa | 0 mm | - | 0 W/m² | - |
| 1788052034 | 15.56° C | 89% | 1022.1 hPa | 0 mm | - | 0 W/m² | - |
| 1788051728 | 15.56° C | 88% | 1022.3 hPa | 0 mm | - | 0 W/m² | - |
| 1788051428 | 15° C | 89% | 1022.4 hPa | 0 mm | - | 0 W/m² | - |
| 1788051127 | 15.56° C | 88% | 1022.1 hPa | 0 mm | - | 0 W/m² | - |
| 1788050827 | 15.56° C | 88% | 1022.1 hPa | 0 mm | - | 0 W/m² | - |
| 1788050521 | 15.56° C | 88% | 1022.3 hPa | 0 mm | - | 0 W/m² | - |
| 1788050217 | 15.56° C | 88% | 1021.9 hPa | 0 mm | - | 0 W/m² | - |
| 1788049917 | 15.56° C | 87% | 1022 hPa | 0 mm | - | 0 W/m² | - |
| 1788049615 | 16.11° C | 86% | 1021.9 hPa | 0 mm | - | 0 W/m² | - |
| 1788049311 | 16.11° C | 85% | 1021.9 hPa | 0 mm | - | 0 W/m² | - |
| 1788049011 | 16.67° C | 84% | 1021.9 hPa | 0 mm | - | 0 W/m² | - |
| 1788048707 | 16.67° C | 82% | 1022 hPa | 0 mm | - | 0 W/m² | - |
| 1788048405 | 16.67° C | 83% | 1022 hPa | 0 mm | - | 0 W/m² | - |
| 1788048105 | 16.67° C | 83% | 1021.7 hPa | 0 mm | - | 0 W/m² | - |
| 1788047802 | 17.22° C | 81% | 1021.6 hPa | 0 mm | - | 0 W/m² | - |
| 1788047502 | 17.22° C | 81% | 1021.7 hPa | 0 mm | - | 0 W/m² | - |
* Rain latest hour (hover to see other rain measurements)
** Current wind speed in m/s (hover to see current wind gust speed)